This is the latest recevied weather packets stored in our database for station/object K1RFS. If no packets are shown the sender has not sent any weather packets the latest 10 day(s).
| Time | Temp. | Humidity | Pressure | Rain* | Wind** | Luminosity | Snow |
|---|---|---|---|---|---|---|---|
| 1787633637 | 22.78° C | 44% | 1009.6 hPa | 0 mm | - | 0 W/m² | - |
| 1787633334 | 22.22° C | 45% | 1009.6 hPa | 0 mm | - | 0 W/m² | - |
| 1787633029 | 22.22° C | 47% | 1009.6 hPa | 0 mm | - | 0 W/m² | - |
| 1787632725 | 21.67° C | 48% | 1009.7 hPa | 0 mm | - | 0 W/m² | - |
| 1787632421 | 21.67° C | 49% | 1009.7 hPa | 0 mm | - | 0 W/m² | - |
| 1787632120 | 22.22° C | 49% | 1009.6 hPa | 0 mm | - | 0 W/m² | - |
| 1787631816 | 22.22° C | 47% | 1009.6 hPa | 0 mm | - | 0 W/m² | - |
| 1787631512 | 22.22° C | 46% | 1009.5 hPa | 0 mm | - | 0 W/m² | - |
| 1787631208 | 22.22° C | 47% | 1009.6 hPa | 0 mm | - | 0 W/m² | - |
| 1787630907 | 21.67° C | 49% | 1009.4 hPa | 0 mm | - | 0 W/m² | - |
| 1787630603 | 21.67° C | 56% | 1009.4 hPa | 0 mm | - | 0 W/m² | - |
| 1787630302 | 21.67° C | 56% | 1009.5 hPa | 0 mm | - | 0 W/m² | - |
| 1787629999 | 21.67° C | 56% | 1009.5 hPa | 0 mm | - | 0 W/m² | - |
| 1787629694 | 22.22° C | 55% | 1009.3 hPa | 0 mm | - | 0 W/m² | - |
| 1787629389 | 22.22° C | 54% | 1009.4 hPa | 0 mm | - | 0 W/m² | - |
| 1787629085 | 22.78° C | 53% | 1009.3 hPa | 0 mm | - | 0 W/m² | - |
| 1787628780 | 22.78° C | 51% | 1009.2 hPa | 0 mm | - | 0 W/m² | - |
| 1787628475 | 23.33° C | 49% | 1009 hPa | 0 mm | - | 0 W/m² | - |
| 1787628170 | 23.33° C | 48% | 1008.7 hPa | 0 mm | - | 0 W/m² | - |
| 1787627865 | 23.33° C | 49% | 1008.5 hPa | 0 mm | - | 0 W/m² | - |
| 1787627561 | 23.33° C | 50% | 1008.5 hPa | 0 mm | - | 0 W/m² | - |
| 1787627256 | 22.78° C | 48% | 1008.1 hPa | 0 mm | - | 0 W/m² | - |
| 1787626953 | 22.78° C | 52% | 1008.1 hPa | 0 mm | - | 0 W/m² | - |
| 1787626652 | 23.33° C | 51% | 1007.9 hPa | 0 mm | - | 0 W/m² | - |
| 1787626348 | 23.33° C | 50% | 1007.9 hPa | 0 mm | - | 0 W/m² | - |
* Rain latest hour (hover to see other rain measurements)
** Current wind speed in m/s (hover to see current wind gust speed)